Air Force Academy, CO

3:37 AM MST on November 21, 2019 (GMT -0700)
Usaf Academy

Weather History for KAFF - May, 2019

Change the Weather History Date:

Saturday, May 4, 2019

  Actual Average Record
Temperature  
Mean Temperature 49 °F -  
Max Temperature 68 °F 60 °F 86 °F (2000)
Min Temperature 32 °F 35 °F 26 °F (2008)
Degree Days  
Heating Degree Days 16    
Moisture  
Dew Point 27 °F    
Average Humidity 51    
Maximum Humidity 100    
Minimum Humidity 14    
Precipitation  
Precipitation 0.00 in - - ()
Sea Level Pressure  
Sea Level Pressure 29.85 in    
Wind  
Wind Speed 8 mph (North)    
Max Wind Speed 20 mph    
Max Gust Speed 29 mph    
Visibility 9 miles    
Events Fog    
Averages and records for this station are not official NWS values.
T = Trace of Precipitation, MM = Missing Value Source: NWS Daily Summary

Daily Weather History Graph

Daily Weather History Graph

Search for Another Location

Airport or City:

Astronomy

May. 04, 2019 Rise Set
Actual Time 5:57 AM MDT 7:54 PM MDT
Civil Twilight 5:28 AM MDT 8:23 PM MDT
Nautical Twilight 4:53 AM MDT 8:59 PM MDT
Astronomical Twilight 4:15 AM MDT 9:37 PM MDT
Moon 6:09 AM MDT (5/4) 7:47 PM MDT (5/4)
Length of Visible Light 14h 54m
Length of Day
13h 56m
Waning Crescent, 0% of the Moon is Illuminated
May 4
Waning Crescent
May 4
New
May 11
First Quarter
May 18
Full
May 26
Last Quarter

Hourly Weather History & Observations

Time (MDT) Temp. Windchill Dew Point Humidity Pressure Visibility Wind Dir Wind Speed Gust Speed Precip Events Conditions
12:58 AM 41.4 °F 37.6 °F 36.3 °F 82% 29.94 in 10.0 mi ENE 5.8 mph - N/A   Clear
1:58 AM 37.0 °F 33.3 °F 34.3 °F 90% 29.93 in 10.0 mi North 4.6 mph - N/A   Clear
3:58 AM 32.0 °F 24.2 °F 30.4 °F 94% 29.94 in 10.0 mi North 9.2 mph - N/A   Clear
5:41 AM 32.0 °F 24.8 °F 32.0 °F 100% 29.95 in 10.0 mi North 8.1 mph - N/A   Partly Cloudy
6:54 AM 37.4 °F 30.8 °F 37.4 °F 100% 29.94 in 1.5 mi North 9.2 mph - N/A   Mostly Cloudy
6:55 AM 37.4 °F 31.4 °F 37.4 °F 100% 29.94 in 0.1 mi North 8.1 mph - N/A Fog Fog
6:58 AM 37.4 °F 31.4 °F 37.4 °F 100% 29.94 in 0.1 mi North 8.1 mph - N/A Fog Fog
7:19 AM 37.4 °F 32.8 °F 37.4 °F 100% 29.95 in 0.5 mi North 5.8 mph - N/A Fog Fog
7:21 AM 37.4 °F 32.8 °F 37.4 °F 100% 29.95 in 5.0 mi North 5.8 mph - N/A   Scattered Clouds
7:44 AM 39.2 °F 35.0 °F 39.2 °F 100% 29.95 in 10.0 mi North 5.8 mph - N/A   Scattered Clouds
7:58 AM 41.2 °F 37.3 °F 41.0 °F 99% 29.95 in 10.0 mi North 5.8 mph - N/A   Partly Cloudy
8:58 AM 50.7 °F - 37.8 °F 61% 29.89 in 10.0 mi Calm Calm - N/A   Scattered Clouds
9:58 AM 58.5 °F - 16.3 °F 19% 29.87 in 10.0 mi ENE 5.8 mph - N/A   Partly Cloudy
10:58 AM 61.0 °F - 18.3 °F 19% 29.85 in 10.0 mi ENE 3.5 mph - N/A   Partly Cloudy
11:58 AM 64.0 °F - 22.1 °F 20% 29.83 in 10.0 mi SSE 16.1 mph - N/A   Scattered Clouds
12:47 PM 66.2 °F - 23.0 °F 19% 29.78 in 10.0 mi SSW 15.0 mph 23.0 mph N/A   Scattered Clouds
12:58 PM 64.8 °F - 21.6 °F 19% 29.80 in 10.0 mi South 11.5 mph 23.0 mph N/A   Mostly Cloudy
1:58 PM 65.8 °F - 21.2 °F 18% 29.78 in 10.0 mi South 13.8 mph 20.7 mph N/A   Mostly Cloudy
2:58 PM 64.6 °F - 20.1 °F 18% 29.79 in 10.0 mi South 10.4 mph - N/A   Scattered Clouds
3:58 PM 65.1 °F - 16.3 °F 15% 29.76 in 10.0 mi West 5.8 mph - N/A   Mostly Cloudy
4:58 PM 66.6 °F - 15.8 °F 14% 29.74 in 10.0 mi North 19.6 mph 28.8 mph N/A   Mostly Cloudy
4:59 PM 66.2 °F - 17.6 °F 15% 29.74 in 10.0 mi North 18.4 mph 28.8 mph N/A   Scattered Clouds
5:09 PM 64.4 °F - 14.0 °F 14% 29.76 in 10.0 mi NW 12.7 mph - N/A   Mostly Cloudy
5:58 PM 63.7 °F - 19.4 °F 18% 29.77 in 10.0 mi NNE 9.2 mph 18.4 mph N/A   Mostly Cloudy
6:58 PM 64.2 °F - 18.5 °F 17% 29.74 in 10.0 mi North 5.8 mph - N/A   Partly Cloudy
7:58 PM 56.3 °F - 23.5 °F 28% 29.77 in 10.0 mi NNE 6.9 mph - N/A   Partly Cloudy
8:58 PM 49.3 °F - 26.1 °F 40% 29.81 in 10.0 mi North 8.1 mph - N/A   Scattered Clouds
9:58 PM 47.7 °F - 23.4 °F 38% 29.80 in 10.0 mi North 8.1 mph - N/A   Partly Cloudy
10:58 PM 45.1 °F 40.8 °F 21.6 °F 39% 29.80 in 10.0 mi North 8.1 mph - N/A   Clear
11:58 PM 42.1 °F 37.7 °F 22.8 °F 46% 29.80 in 10.0 mi North 6.9 mph - N/A   Clear